Location: Concepci�n
(32.5333°N, 117.1167°W)
Time: 10:52:53
(UTC+00:00)

Cosmos 1452 Rocket - Pass Details

Date: 08 May 2021
Orbit: 767 x 775 km, 74.1° (Epoch: 15 June)

Event Time Altitude Azimuth Distance (km) Brightness Sun altitude
Exits shadow 12:19:51 - 208° (SSW) 2,927 6.0 -7.6°
Reaches altitude 10° 12:21:29 10° 212° (SSW) 2,305 5.5 -7.3°
Maximum altitude 12:26:35 53° 289° (WNW) 941 3.7 -6.4°
Drops below altitude 10° 12:31:45 10° 6° (N) 2,323 6.4 -5.4°
Sets 12:34:12 0° 11° (NNE) 3,254 7.3 -4.9°
